N5SOR-1 Weather Reports


time (UTC)temp
C
wind
direction
speed
KPH
gust
KPH
rain 1hr
cm
rain 24hr
cm
rain mn
cm
humidity
%
barometer
mb
20260507192052 16 50 6.4 16.1 0.00 0.00 0.00 65 1017.3
20260507190952 16 38 6.4 17.7 0.00 0.00 0.00 67 1017.2
20260507185851 15 26 6.4 9.7 0.00 0.00 0.00 68 1017.4
20260507184750 15 52 8.0 12.9 0.00 0.00 0.00 69 1017.6
20260507183649 15 35 6.4 14.5 0.00 0.00 0.00 71 1017.9
20260507182549 15 60 8.0 12.9 0.00 0.00 0.00 72 1018.1
20260507181448 15 62 6.4 14.5 0.00 0.00 0.00 72 1018.2
20260507180348 15 54 9.7 12.9 0.00 0.00 0.00 72 1018.2
20260507175247 14 45 11.3 16.1 0.00 0.00 0.00 74 1018.2
20260507174146 14 43 9.7 17.7 0.00 0.00 0.00 74 1018.4
20260507173046 14 56 11.3 20.9 0.00 0.00 0.00 74 1018.3
20260507171945 13 31 14.5 17.7 0.00 0.00 0.00 76 1018.4
20260507170845 13 43 12.9 17.7 0.00 0.00 0.00 76 1018.4
20260507165744 13 34 14.5 19.3 0.00 0.00 0.00 77 1018.5
20260507164643 13 37 14.5 20.9 0.00 0.00 0.00 79 1018.6
20260507163543 12 31 14.5 24.1 0.00 0.00 0.00 81 1018.6
20260507162442 12 54 12.9 17.7 0.00 0.00 0.00 82 1018.8
20260507161342 11 48 12.9 19.3 0.00 0.00 0.00 83 1018.8
20260507160241 11 53 14.5 22.5 0.00 0.00 0.00 83 1018.6
20260507155140 11 45 14.5 19.3 0.00 0.00 0.00 84 1018.8
20260507154040 11 39 14.5 19.3 0.00 0.00 0.00 83 1018.6
20260507152939 11 25 16.1 22.5 0.00 0.00 0.00 82 1018.6
20260507151838 11 37 16.1 22.5 0.00 0.00 0.00 82 1018.6
20260507150738 11 56 16.1 24.1 0.00 0.00 0.00 82 1018.4
20260507145637 11 33 14.5 20.9 0.00 0.00 0.00 82 1018.4
20260507144537 11 47 16.1 20.9 0.00 0.00 0.00 83 1018.5
20260507143436 11 54 17.7 24.1 0.00 0.00 0.00 83 1018.5
20260507142335 11 68 17.7 25.7 0.00 0.00 0.00 83 1018.5
20260507140134 12 71 12.9 20.9 0.00 0.00 0.00 83 1018.1
20260507135034 12 64 14.5 19.3 0.00 0.00 0.00 83 1017.9
20260507133933 12 76 16.1 16.1 0.00 0.00 0.00 83 1017.5
20260507132832 12 66 14.5 17.7 0.00 0.00 0.00 82 1017.6
20260507131732 12 75 16.1 22.5 0.00 0.00 0.00 82 1017.5
20260507130631 12 92 16.1 20.9 0.00 0.00 0.00 82 1017.6
20260507125530 12 75 17.7 24.1 0.00 0.00 0.00 82 1017.4
20260507124430 12 73 17.7 22.5 0.00 0.00 0.00 82 1017.0
20260507123330 12 101 16.1 20.9 0.00 0.00 0.00 82 1016.7
20260507122229 12 84 16.1 22.5 0.00 0.00 0.00 82 1016.5
20260507121128 12 107 17.7 25.7 0.00 0.00 0.00 82 1016.4
20260507120027 12 89 19.3 30.6 0.00 0.00 0.00 81 1016.2
20260507114927 12 86 20.9 30.6 0.00 0.00 0.00 81 1015.9
20260507113826 13 83 20.9 30.6 0.00 0.00 0.00 81 1015.9
20260507112726 13 89 16.1 24.1 0.00 0.00 0.00 81 1016.0
20260507111625 13 73 11.3 20.9 0.00 0.00 0.00 81 1015.5
20260507110524 14 114 8.0 19.3 0.00 0.00 0.00 80 1015.1
20260507105424 14 109 20.9 37.0 0.00 0.00 0.00 80 1015.5
20260507104323 13 133 17.7 25.7 0.00 0.00 0.00 81 1014.2
20260507103222 14 135 16.1 24.1 0.00 0.00 0.00 80 1014.0
20260507102123 14 127 14.5 22.5 0.00 0.00 0.00 79 1014.0
20260507101021 15 125 16.1 20.9 0.00 0.00 0.00 77 1014.0
20260507095921 15 114 16.1 24.1 0.00 0.00 0.00 71 1014.3
20260507094820 15 108 14.5 22.5 0.00 0.00 0.00 65 1014.4
20260507093719 16 109 14.5 19.3 0.00 0.00 0.00 57 1014.2
20260507092619 16 117 9.7 14.5 0.00 0.00 0.00 53 1014.4
20260507091518 16 106 9.7 14.5 0.00 0.00 0.00 51 1014.5
20260507090418 16 114 4.8 6.4 0.00 0.00 0.00 48 1014.3
20260507085317 16 114 6.4 11.3 0.00 0.00 0.00 47 1014.4
20260507084217 17 114 6.4 9.7 0.00 0.00 0.00 47 1014.4
20260507083116 16 129 9.7 12.9 0.00 0.00 0.00 48 1014.5
20260507082015 16 112 12.9 17.7 0.00 0.00 0.00 48 1014.6
20260507080914 17 120 8.0 11.3 0.00 0.00 0.00 48 1014.6
20260507075814 17 115 8.0 11.3 0.00 0.00 0.00 47 1014.8
20260507074713 18 125 6.4 12.9 0.00 0.00 0.00 45 1014.8
20260507073613 18 149 6.4 14.5 0.00 0.00 0.00 44 1014.5
20260507072512 18 166 8.0 14.5 0.00 0.00 0.00 43 1014.1
20260507071411 18 168 8.0 16.1 0.00 0.00 0.00 43 1014.1
20260507070311 18 164 8.0 11.3 0.00 0.00 0.00 45 1014.2
20260507065210 18 172 8.0 14.5 0.00 0.00 0.00 44 1014.1
20260507064110 18 175 11.3 20.9 0.00 0.00 0.00 46 1014.2
20260507063009 18 156 6.4 12.9 0.00 0.00 0.00 47 1014.1
20260507061908 18 156 8.0 17.7 0.00 0.00 0.00 50 1013.9
20260507060808 18 129 9.7 17.7 0.00 0.00 0.00 55 1013.8
20260507055708 18 137 9.7 17.7 0.00 0.00 0.00 55 1013.7
20260507054607 18 141 11.3 20.9 0.00 0.00 0.00 55 1013.7
20260507053506 18 132 11.3 19.3 0.00 0.00 0.00 55 1013.5
20260507052405 19 146 9.7 17.7 0.00 0.00 0.00 55 1013.5
20260507051305 19 141 8.0 16.1 0.00 0.00 0.00 55 1013.5
20260507050204 19 137 11.3 17.7 0.00 0.00 0.00 54 1013.3
20260507045104 20 137 12.9 20.9 0.00 0.00 0.00 52 1013.2
20260507044003 20 137 9.7 20.9 0.00 0.00 0.00 51 1012.9
20260507042902 20 143 11.3 22.5 0.00 0.00 0.00 49 1013.0
20260507041802 20 146 9.7 20.9 0.00 0.00 0.00 47 1013.0
20260507040701 20 141 12.9 19.3 0.00 0.00 0.00 44 1012.9
20260507035600 20 125 11.3 19.3 0.00 0.00 0.00 43 1012.6
20260507034500 21 142 12.9 20.9 0.00 0.00 0.00 38 1012.5
20260507033359 21 151 12.9 19.3 0.00 0.00 0.00 35 1012.4
20260507032258 21 142 12.9 20.9 0.00 0.00 0.00 34 1012.5
20260507031158 21 150 11.3 22.5 0.00 0.00 0.00 33 1012.5
20260507030057 21 139 12.9 25.7 0.00 0.00 0.00 32 1012.2
20260507024957 21 141 11.3 19.3 0.00 0.00 0.00 33 1012.2
20260507023856 21 147 9.7 16.1 0.00 0.00 0.00 33 1012.0
20260507022756 21 129 14.5 20.9 0.00 0.00 0.00 33 1012.0
20260507021655 21 132 12.9 17.7 0.00 0.00 0.00 34 1011.6
20260507020554 21 129 14.5 19.3 0.00 0.00 0.00 34 1011.5
20260507015454 22 128 14.5 17.7 0.00 0.00 0.00 34 1011.3
20260507014353 22 127 12.9 17.7 0.00 0.00 0.00 33 1011.2
20260507013252 22 141 14.5 20.9 0.00 0.00 0.00 32 1011.1
20260507012152 23 126 12.9 17.7 0.00 0.00 0.00 31 1010.9
20260507011051 23 122 12.9 22.5 0.00 0.00 0.00 31 1010.7
20260507005950 23 124 11.3 17.7 0.00 0.00 0.00 31 1010.7
20260507004850 23 125 12.9 19.3 0.00 0.00 0.00 31 1010.7
20260507003749 23 129 11.3 16.1 0.00 0.00 0.00 31 1010.6
20260507002649 23 125 11.3 16.1 0.00 0.00 0.00 31 1010.5
20260507001548 23 119 12.9 17.7 0.00 0.00 0.00 30 1010.6
20260507000450 23 112 14.5 22.5 0.00 0.00 0.00 29 1010.5
20260506235347 24 109 12.9 20.9 0.00 0.00 0.00 29 1010.5
20260506234246 24 102 14.5 17.7 0.00 0.00 0.00 29 1010.6
20260506233146 25 84 16.1 22.5 0.00 0.00 0.00 29 1010.7
20260506232045 25 48 19.3 27.4 0.00 0.00 0.00 28 1010.6
20260506230944 25 77 14.5 22.5 0.00 0.00 0.00 29 1010.6
20260506225844 25 81 12.9 20.9 0.00 0.00 0.00 28 1010.5
20260506224743 25 73 14.5 24.1 0.00 0.00 0.00 28 1010.5
20260506223642 25 71 11.3 19.3 0.00 0.00 0.00 27 1010.4
20260506222542 25 67 12.9 19.3 0.00 0.00 0.00 28 1010.4
20260506221441 25 84 16.1 20.9 0.00 0.00 0.00 28 1010.4
20260506220341 25 58 9.7 19.3 0.00 0.00 0.00 28 1010.5
20260506215240 26 23 11.3 16.1 0.00 0.00 0.00 27 1010.4
20260506214139 26 60 11.3 16.1 0.00 0.00 0.00 28 1010.4
20260506213039 25 66 11.3 17.7 0.00 0.00 0.00 28 1010.4
20260506211938 26 20 8.0 22.5 0.00 0.00 0.00 27 1010.6
20260506210838 25 247 6.4 14.5 0.00 0.00 0.00 28 1010.9
20260506205737 25 354 12.9 19.3 0.00 0.00 0.00 28 1011.0
20260506204636 26 70 14.5 24.1 0.00 0.00 0.00 27 1011.0
20260506203536 26 70 11.3 24.1 0.00 0.00 0.00 28 1011.1
20260506202435 26 314 4.8 17.7 0.00 0.00 0.00 26 1011.3
20260506201334 25 314 9.7 20.9 0.00 0.00 0.00 27 1011.4
20260506200234 26 339 8.0 19.3 0.00 0.00 0.00 26 1011.5
20260506195133 25 11 9.7 19.3 0.00 0.00 0.00 29 1011.5
20260506194033 25 39 11.3 24.1 0.00 0.00 0.00 29 1011.6
20260506192932 24 85 14.5 29.0 0.00 0.00 0.00 30 1011.6